Regional Weather Roundup
Issued by NWS Charleston, WV

Home | Current Version | Previous Version | Text Only | Print | Product List | Glossary Off
Versions: 1 2 3 4 5 6 7 8 9 10 11 12 13 14 15 16 17 18 19 20 21 22 23 24 25 26 27 28 29 30 31 32 33 34 35 36 37 38 39 40 41 42 43 44 45 46 47 48 49 50

000
ASUS41 KRLX 231310
RWRRLX
West Virginia Regional Weather Roundup
National Weather Service Charleston WV
900 AM EDT TUE SEP 23 2014

Note: "fair" indicates few or no clouds below 12,000 feet with no
significant weather and/or obstructions to visibility.

WVZ003-231400-
Northern Panhandle of West Virginia

CITY           SKY/WX    TMP DP  RH WIND       PRES   REMARKS
WHEELING       SUNNY     46  43  89 CALM      30.37R
$$

WVZ009-231400-
Northwest West Virginia

CITY           SKY/WX    TMP DP  RH WIND       PRES   REMARKS
PARKERSBURG    FOG       44  44 100 CALM      30.38S VSB 1/2
$$

WVZ006-231400-
Western West Virginia

CITY           SKY/WX    TMP DP  RH WIND       PRES   REMARKS
HUNTINGTON     SUNNY     50  47  89 CALM      30.32R
$$

WVZ015-231400-
West Central West Virginia

CITY           SKY/WX    TMP DP  RH WIND       PRES   REMARKS
CHARLESTON     FOG       45  45 100 CALM      30.33R VSB 1/8
$$

WVZ031-231400-
North Central West Virginia

CITY           SKY/WX    TMP DP  RH WIND       PRES   REMARKS
CLARKSBURG     FOG       43  43 100 NE5       30.36R VSB 1/4
MORGANTOWN     SUNNY     50  44  80 N3        30.37R
$$

WVZ035-042-045-231400-
South Central West Virginia

CITY           SKY/WX    TMP DP  RH WIND       PRES   REMARKS
BECKLEY        SUNNY     48  43  82 CALM      30.33R
BLUEFIELD      FOG       44  42  93 E6        30.33R VSB<1/4
LEWISBURG      FOG       42  40  95 CALM      30.34R VSB<1/4
$$

WVZ047-231400-
Northern Mountains of West Virginia

CITY           SKY/WX    TMP DP  RH WIND       PRES   REMARKS
ELKINS         FOG       41  41 100 CALM      30.36R VSB 1/2
$$

WVZ052-231400-
Eastern Panhandle of West Virginia

CITY           SKY/WX    TMP DP  RH WIND       PRES   REMARKS
MARTINSBURG    SUNNY     50  42  74 CALM      30.37R
PETERSBURG     SUNNY     43  41  93 CALM      30.39R
$$



USA.gov is the U.S. government's official web portal to all federal, state and local government web resources and services.